Weather History for Kalamata, Greece

Change the Weather History Date:

Wednesday, October 3, 2012

  Actual Average Record
Temperature  
Mean Temperature 73 °F -  
Max Temperature 86 °F 75 °F 86 °F (2012)
Min Temperature 60 °F 55 °F 53 °F (1996)
Cooling Degree Days 8    
Growing Degree Days 23 (Base 50)    
Moisture  
Dew Point 60 °F    
Average Humidity 62    
Maximum Humidity 94    
Minimum Humidity 37    
Precipitation  
Precipitation 0.00 in 0.14 in - ()
Sea Level Pressure  
Sea Level Pressure 29.98 in    
Wind  
Wind Speed 4 mph ()    
Max Wind Speed 14 mph    
Max Gust Speed -    
Visibility 6.2 miles    
Events      
Averages and records for this station are not official NWS values.
T = Trace of Precipitation, MM = Missing Value Source: Averaged Metar Reports

Daily Weather History Graph

Daily Weather History Graph

Search for Another Location

Airport:

Trip Planner

Search our weather history database for the weather conditions in past years. The results will help you decide how hot, cold, wet, or windy it might be!

Date:

Astronomy

Oct. 03, 2012 Rise Set
Actual Time 7:29 AM EEST 7:11 PM EEST
Civil Twilight 7:03 AM EEST 7:37 PM EEST
Nautical Twilight 6:33 AM EEST 8:07 PM EEST
Astronomical Twilight 6:02 AM EEST 8:38 PM EEST
Moon 8:57 PM EEST (10/3) 10:29 AM EEST (10/3)
Length of Visible Light 12h 34m
Length of Day
11h 42m
Waning Gibbous, 90% of the Moon is Illuminated
Oct 3
Waning Gibbous
Oct 8
Last Quarter
Oct 15
New
Oct 22
First Quarter
Oct 29
Full

Hourly Weather History & Observations

Time (EEST) Temp. Heat Index Dew Point Humidity Pressure Visibility Wind Dir Wind Speed Gust Speed Precip Events Conditions
2:50 AM 62.6 °F - 59.0 °F 88% 30.04 in - Calm Calm - N/A   Clear
5:50 AM 60.8 °F - 57.2 °F 88% 29.98 in - West 5.8 mph - N/A   Clear
6:20 AM 62.6 °F - 59.0 °F 88% 29.98 in - North 4.6 mph - N/A   Clear
6:50 AM 62.6 °F - 59.0 °F 88% 30.01 in - North 4.6 mph - N/A   Clear
7:20 AM 62.6 °F - 59.0 °F 88% 30.01 in 6.2 mi Calm Calm - N/A   Partly Cloudy
7:50 AM 62.6 °F - 59.0 °F 88% 30.01 in 6.2 mi Calm Calm - N/A   Partly Cloudy
8:20 AM 62.6 °F - 60.8 °F 94% 30.01 in 6.2 mi NNW 4.6 mph - N/A   Partly Cloudy
8:50 AM 66.2 °F - 62.6 °F 88% 30.01 in 6.2 mi Calm Calm - N/A   Partly Cloudy
9:20 AM 69.8 °F - 62.6 °F 78% 30.01 in 6.2 mi NNW 4.6 mph - N/A   Partly Cloudy
9:50 AM 73.4 °F - 66.2 °F 78% 30.01 in 6.2 mi Calm Calm - N/A   Partly Cloudy
10:20 AM 77.0 °F - 64.4 °F 65% 30.01 in 6.2 mi Calm Calm - N/A   Partly Cloudy
10:50 AM 80.6 °F 81.8 °F 62.6 °F 54% 30.01 in 6.2 mi North 4.6 mph - N/A   Partly Cloudy
11:20 AM 80.6 °F 81.8 °F 62.6 °F 54% 30.01 in 6.2 mi North 4.6 mph - N/A   Partly Cloudy
11:50 AM 82.4 °F 82.9 °F 60.8 °F 48% 30.01 in 6.2 mi NNE 6.9 mph - N/A   Partly Cloudy
12:20 PM 84.2 °F 83.8 °F 59.0 °F 42% 30.01 in 6.2 mi North 4.6 mph - N/A   Scattered Clouds
12:50 PM 84.2 °F 83.5 °F 57.2 °F 40% 29.98 in 6.2 mi Calm Calm - N/A   Scattered Clouds
1:20 PM 84.2 °F 83.0 °F 55.4 °F 37% 29.98 in 6.2 mi Calm Calm - N/A   Scattered Clouds
1:50 PM 86.0 °F 84.9 °F 57.2 °F 37% 29.98 in 6.2 mi North 4.6 mph - N/A   Scattered Clouds
2:20 PM 82.4 °F 82.0 °F 57.2 °F 42% 29.98 in 6.2 mi NNE 10.4 mph - N/A   Scattered Clouds
2:50 PM 82.4 °F 81.7 °F 55.4 °F 39% 29.95 in 6.2 mi NNE 10.4 mph - N/A   Scattered Clouds
3:20 PM 82.4 °F 81.7 °F 55.4 °F 39% 29.95 in 6.2 mi NNE 10.4 mph - N/A   Scattered Clouds
3:50 PM 82.4 °F 82.0 °F 57.2 °F 42% 29.95 in 6.2 mi NNE 13.8 mph - N/A   Scattered Clouds
4:20 PM 84.2 °F 83.5 °F 57.2 °F 40% 29.95 in 6.2 mi North 12.7 mph - N/A   Scattered Clouds
4:50 PM 82.4 °F 82.0 °F 57.2 °F 42% 29.95 in 6.2 mi North 12.7 mph - N/A   Scattered Clouds
5:20 PM 82.4 °F 82.5 °F 59.0 °F 45% 29.95 in 6.2 mi NNE 12.7 mph - N/A   Scattered Clouds
5:50 PM 80.6 °F 81.1 °F 59.0 °F 48% 29.95 in 6.2 mi NNE 12.7 mph - N/A   Scattered Clouds
6:20 PM 78.8 °F - 60.8 °F 54% 29.95 in 6.2 mi NNE 12.7 mph - N/A   Scattered Clouds
6:50 PM 77.0 °F - 62.6 °F 61% 29.95 in 6.2 mi NNE 9.2 mph - N/A   Scattered Clouds
7:20 PM 75.2 °F - 62.6 °F 65% 29.95 in 6.2 mi North 9.2 mph - N/A   Scattered Clouds
7:50 PM 75.2 °F - 64.4 °F 69% 29.95 in 6.2 mi NNE 9.2 mph - N/A   Partly Cloudy
8:20 PM 75.2 °F - 64.4 °F 69% 29.98 in 6.2 mi NNE 8.1 mph - N/A   Partly Cloudy
8:50 PM 73.4 °F - 64.4 °F 73% 29.98 in 6.2 mi NNE 8.1 mph - N/A   Partly Cloudy
11:50 PM 71.6 °F - 64.4 °F 78% 29.98 in - Calm Calm - N/A   Clear